[[{"header":{"parameterUnit":"m.s-1","parameterCategory":1,"la1":30.2991,"la2":30.254,"lo1":-89.0895,"lo2":-89.0444,"dy":0.0017,"dx":0.0017,"nx":28,"ny":28,"refTime":"2025-11-25T03:00:00:Z","depth":0,"parameterNumber":2,"parameterNumberName":"U-component_of_WINDS"},"data":[0,0,0,0,0,0,0,0,0,0,0,0,0,0,0,0,0,0,0,0,0,0,0,0,0,0,0,0,0,0,0,0,0,0,0,0,0,0,0,0,0,0,0,0,0,0,0,0,0,0,0,0,0,0,0,0,0,0,1.875,1.8751,0,1.8795,1.8796,1.8796,1.8744,1.8742,1.8741,1.8739,1.879,1.8793,1.8796,0,0,0,0,0,0,0,0,0,0,0,0,0,1.8624,1.8627,1.875,1.8751,1.8751,1.8795,1.8796,1.8796,1.8745,1.8742,1.874,1.8738,1.8789,1.8793,1.8797,0,0,0,0,0,0,0,0,0,0,0,0,0,1.8675,1.8628,1.875,1.8731,1.873,1.8795,1.8796,1.8797,1.8745,1.8742,1.8739,1.8737,1.8788,1.8792,1.8797,1.8885,0,0,1.8812,1.8814,0,0,0,0,0,0,0,0,1.8673,1.868,1.8733,1.8732,1.8731,1.8761,1.877,1.8827,1.8746,1.874,1.8739,1.8735,1.8783,1.8788,1.8803,1.8888,1.889,1.8812,1.8815,1.8817,1.8818,0,0,0,0,0,0,0,1.8669,1.8678,1.8768,1.8734,1.8733,1.8721,1.8725,1.8781,1.8777,1.874,1.8736,1.8742,1.8782,1.8799,1.8804,1.8891,1.8812,1.8816,1.8819,1.8821,1.905,1.9053,0,0,0,0,0,0,1.8667,1.8675,1.8767,1.877,1.8694,1.8726,1.873,1.8754,1.8777,1.8777,1.8744,1.8739,1.8792,1.8798,1.8806,1.891,1.8817,1.8822,1.8824,1.9047,1.9051,1.9054,0,0,0,0,0,0,1.8665,1.8676,1.8765,1.8721,1.8732,1.8731,1.8759,1.8757,1.8773,1.878,1.878,1.8762,1.879,1.8799,1.8865,1.8911,1.8824,1.8828,1.9043,1.9048,1.9053,1.912,0,0,0,0,0,0,1.8661,1.8675,1.8708,1.8722,1.8734,1.8823,1.8761,1.876,1.8781,1.8775,1.8796,1.8797,1.8788,1.8859,1.887,1.8916,1.8832,1.9039,1.9045,1.9051,1.9114,1.9127,1.9138,0,0,0,0,0,1.8657,1.8726,1.871,1.8721,1.8775,1.8826,1.8833,1.882,1.8785,1.8818,1.8823,1.8796,1.8904,1.8866,1.8879,1.8927,1.9036,1.9044,1.9051,1.9109,1.9124,1.9138,0,0,0,0,0,0,1.8719,1.8728,1.8709,1.8785,1.8805,1.8817,1.8858,1.8837,1.8868,1.8861,1.8846,1.8851,1.8922,1.8931,1.8888,1.9013,1.8965,1.8975,1.9005,1.902,1.9031,1.9028,1.8836,0,0,0,0,0,1.8741,1.878,1.8786,1.8853,1.8863,1.8859,1.8881,1.8869,1.889,1.8898,1.8907,1.893,1.8968,1.8994,1.9031,1.9115,1.9119,1.9155,1.9166,1.9176,1.9185,1.9231,1.9246,1.9078,1.9078,1.9078,0,0,1.8788,1.8797,1.8823,1.8865,1.8879,1.8921,1.8867,1.8914,1.8945,1.8906,1.8969,1.8976,1.9,1.9076,1.911,1.9086,1.9233,1.9185,1.9193,1.9197,1.924,1.9256,1.927,1.9083,1.9082,1.9081,0,0,1.8894,1.8905,1.8961,1.8976,1.8997,1.8993,1.9007,1.9022,1.9025,1.9088,1.9059,1.9097,1.9164,1.9182,1.9201,1.9313,1.9291,1.9326,1.9388,1.9433,1.9446,1.9458,1.9498,1.9513,1.9335,1.9335,1.9335,0,1.895,1.901,1.8993,1.9042,1.9062,1.9026,1.9084,1.9099,1.9132,1.9147,1.9119,1.9202,1.9216,1.9295,1.9323,1.9339,1.9355,1.9323,1.9445,1.9457,1.9468,1.9506,1.9521,1.9339,1.9339,1.9338,1.9338,0,1.9078,1.9121,1.9164,1.9194,1.9219,1.9272,1.9264,1.9291,1.9277,1.9278,1.9342,1.9357,1.9395,1.9414,1.9401,1.9492,1.9476,1.9447,1.9398,1.9488,1.9524,1.9538,1.9345,1.9344,1.9342,1.9341,0,0,1.9225,1.9244,1.926,1.9273,1.9294,1.9327,1.9379,1.9415,1.9439,1.9462,1.9506,1.9564,1.9537,1.9557,1.9547,1.9586,1.9674,1.9552,1.9552,1.9574,1.9775,1.9797,1.9814,1.9659,1.9662,1.9664,1.9773,0,1.9331,1.9419,1.9405,1.949,1.953,1.9497,1.9542,1.956,1.9562,1.9597,1.9599,1.964,1.9602,1.9614,1.9651,1.9656,1.9715,1.9648,1.9701,1.9703,1.9696,1.9832,1.9856,1.9958,1.9787,1.9789,1.9791,0,1.9467,1.9494,1.9583,1.9596,1.9612,1.9653,1.9685,1.9718,1.9739,1.9737,1.976,1.9742,1.9795,1.9745,1.9819,1.9774,1.9795,1.98,1.9804,1.9809,1.9752,1.9841,1.999,2.0005,1.9813,1.9811,1.981,0,1.9565,1.9624,1.9684,1.9697,1.9714,1.9743,1.9753,1.977,1.9792,1.982,1.9835,1.987,1.9889,1.9917,1.991,1.9874,1.9986,1.9935,1.9987,1.9987,2.0012,2.0011,2.0167,2.0026,2.0026,2.0025,2.0025,0,1.9685,1.9741,1.9728,1.9766,1.9827,1.9811,1.9874,1.9879,1.9894,1.9933,1.9908,1.9945,1.9933,1.997,1.9965,2.0027,2.0036,2.0037,2.0035,2.004,2.004,2.0053,2.0046,2.0029,2.0028,2.0028,2.0027,0,1.9806,1.9799,1.9863,1.9874,1.9878,1.9923,1.9933,1.9969,1.9968,2.0017,2.0028,2.0028,2.007,2.0066,2.0114,2.011,2.0187,2.0177,2.018,2.0177,2.023,2.0225,2.04,2.0422,2.0267,2.0269,2.027,0,1.9883,1.9924,1.9939,1.9962,1.9973,2.0011,2.0033,2.002,2.0044,2.007,2.0103,2.0143,2.0173,2.0243,2.0248,2.0285,2.0275,2.0334,2.0281,2.0284,2.0276,2.0274,2.0278,2.0345,2.0347,2.0348,2.0349,0,2.002,2.0015,2.0047,2.0078,2.0104,2.0129,2.0151,2.0172,2.016,2.0189,2.0231,2.0255,2.0303,2.0343,2.0378,2.0389,2.0368,2.0366,2.038,2.0385,2.0384,2.0385,2.0208,2.0362,2.0361,2.036,2.0359,2.0359,2.0121,2.0156,2.0172,2.0209,2.0223,2.0244,2.0278,2.0281,2.0315,2.0352,2.0342,2.039,2.041,2.0454,2.0468,2.0506,2.0485,2.0506,2.0511,2.0516,2.0522,2.0378,2.0513,2.0512,2.0512,2.0512,2.0511,0,2.0257,2.0265,2.0299,2.033,2.0359,2.0334,2.0357,2.0384,2.0425,2.0445,2.0475,2.0523,2.0562,2.057,2.0607,2.0636,2.0628,2.0646,2.0644,2.0647,2.0539,2.0523,2.0653,2.0653,2.0653,2.0653,2.0653,2.0653,2.0331,2.039,2.0386,2.0452,2.0461,2.0505,2.0521,2.054,2.0555,2.061,2.0641,2.0645,2.066,2.0698,2.0733,2.0735,2.075,2.0773,2.077,2.0669,2.0655,2.0641,2.0626,2.0776,2.0776,2.0876,2.0876,2.0877]},{"header":{"parameterUnit":"m.s-1","parameterCategory":1,"la1":30.2991,"la2":30.254,"lo1":-89.0895,"lo2":-89.0444,"dy":0.0017,"dx":0.0017,"nx":28,"ny":28,"refTime":"2025-11-25T03:00:00:Z","depth":0,"parameterNumber":3,"parameterNumberName":"V-component_of_WINDS"},"data":[0,0,0,0,0,0,0,0,0,0,0,0,0,0,0,0,0,0,0,0,0,0,0,0,0,0,0,0,0,0,0,0,0,0,0,0,0,0,0,0,0,0,0,0,0,0,0,0,0,0,0,0,0,0,0,0,0,0,-0.1148,-0.1146,0,-0.1008,-0.1006,-0.1004,-0.1018,-0.102,-0.1022,-0.1024,-0.0876,-0.0871,-0.0865,0,0,0,0,0,0,0,0,0,0,0,0,0,-0.1424,-0.1419,-0.1148,-0.1146,-0.1144,-0.1008,-0.1006,-0.1004,-0.1017,-0.102,-0.1023,-0.1025,-0.0878,-0.0871,-0.0864,0,0,0,0,0,0,0,0,0,0,0,0,0,-0.1296,-0.1418,-0.1148,-0.1135,-0.1132,-0.1008,-0.1006,-0.1004,-0.1017,-0.102,-0.1023,-0.1027,-0.0881,-0.0872,-0.0863,-0.0742,0,0,-0.0836,-0.0832,0,0,0,0,0,0,0,0,-0.1303,-0.1286,-0.1138,-0.1135,-0.1132,-0.1034,-0.1049,-0.0916,-0.1016,-0.106,-0.1024,-0.1028,-0.0926,-0.0913,-0.088,-0.0735,-0.0729,-0.0835,-0.0829,-0.0826,-0.0823,0,0,0,0,0,0,0,-0.1312,-0.1292,-0.1092,-0.1136,-0.1133,-0.1135,-0.112,-0.1024,-0.0976,-0.1057,-0.1058,-0.1041,-0.0925,-0.0888,-0.0876,-0.0727,-0.0835,-0.0827,-0.0822,-0.0818,-0.0477,-0.0473,0,0,0,0,0,0,-0.1325,-0.1299,-0.1097,-0.1088,-0.1228,-0.1127,-0.1111,-0.1062,-0.0977,-0.0968,-0.1038,-0.1042,-0.0902,-0.0887,-0.0871,-0.0724,-0.0826,-0.0817,-0.0812,-0.0481,-0.0476,-0.0472,0,0,0,0,0,0,-0.1331,-0.1307,-0.1102,-0.1194,-0.1168,-0.1119,-0.1064,-0.1057,-0.1021,-0.0964,-0.0955,-0.101,-0.0904,-0.0884,-0.0775,-0.0719,-0.0813,-0.0805,-0.0485,-0.0479,-0.0474,-0.0429,0,0,0,0,0,0,-0.1339,-0.1309,-0.1263,-0.1193,-0.1163,-0.1009,-0.1061,-0.1052,-0.1006,-0.101,-0.0935,-0.0925,-0.0905,-0.0788,-0.0766,-0.0708,-0.0798,-0.049,-0.0482,-0.0476,-0.0435,-0.0423,-0.0412,0,0,0,0,0,-0.1348,-0.1255,-0.126,-0.1236,-0.1105,-0.1006,-0.0989,-0.0968,-0.1002,-0.0955,-0.0918,-0.0928,-0.0729,-0.0777,-0.0752,-0.0691,-0.0493,-0.0484,-0.0476,-0.044,-0.0425,-0.0412,0,0,0,0,0,0,-0.1317,-0.1245,-0.1251,-0.1132,-0.1075,-0.1008,-0.0948,-0.0953,-0.0884,-0.089,-0.0867,-0.085,-0.074,-0.0705,-0.0759,-0.057,-0.0615,-0.0602,-0.0597,-0.0582,-0.057,-0.058,-0.0791,0,0,0,0,0,-0.1297,-0.1224,-0.1164,-0.1065,-0.1036,-0.0997,-0.0953,-0.0943,-0.0882,-0.0858,-0.0813,-0.0753,-0.0678,-0.0628,-0.0555,-0.0431,-0.0414,-0.0377,-0.0365,-0.0356,-0.0344,-0.0276,-0.0258,-0.0445,-0.0445,-0.0445,0,0,-0.1253,-0.1205,-0.1159,-0.1057,-0.1012,-0.0936,-0.0977,-0.0894,-0.0837,-0.0845,-0.0739,-0.0705,-0.0636,-0.052,-0.0466,-0.0487,-0.0289,-0.0346,-0.0339,-0.0331,-0.0266,-0.0248,-0.0232,-0.0439,-0.044,-0.0441,0,0,-0.1135,-0.1091,-0.1004,-0.0958,-0.089,-0.0865,-0.0844,-0.0777,-0.0755,-0.0649,-0.0654,-0.0586,-0.0455,-0.0407,-0.0365,-0.023,-0.0236,-0.0207,-0.0145,-0.0079,-0.0065,-0.0051,-0.0003,0.0014,-0.0196,-0.0195,-0.0195,0,-0.1088,-0.0975,-0.0958,-0.0874,-0.0829,-0.0836,-0.0747,-0.0703,-0.0614,-0.0582,-0.0608,-0.0445,-0.04,-0.0272,-0.0239,-0.0205,-0.018,-0.0214,-0.0068,-0.0055,-0.0042,0.0004,0.0023,-0.0192,-0.0193,-0.0193,-0.0193,0,-0.0921,-0.0842,-0.078,-0.0695,-0.0643,-0.0557,-0.0527,-0.0476,-0.0471,-0.0443,-0.0335,-0.0282,-0.0198,-0.0167,-0.016,-0.0038,-0.0053,-0.0074,-0.0119,-0.0022,0.0023,0.0041,-0.0188,-0.0189,-0.019,-0.0191,0,0,-0.0776,-0.0686,-0.0663,-0.0625,-0.0551,-0.0489,-0.0404,-0.0324,-0.0281,-0.022,-0.0147,-0.0038,-0.0057,-0.001,0.0002,0.006,0.0163,0.0032,0.0034,0.0055,0.0302,0.0318,0.0338,0.0158,0.0162,0.0165,0.0296,0,-0.065,-0.05,-0.0483,-0.0349,-0.0276,-0.0282,-0.0208,-0.0154,-0.0126,-0.0059,-0.0028,0.0049,0.0017,0.0046,0.0102,0.0138,0.0213,0.0129,0.0228,0.0231,0.0212,0.0361,0.0379,0.05,0.0314,0.0317,0.0319,0,-0.0481,-0.0417,-0.0276,-0.0214,-0.0183,-0.0116,-0.0042,0.0021,0.0082,0.0098,0.015,0.0154,0.0242,0.0192,0.0315,0.0257,0.0298,0.0322,0.0327,0.0339,0.0282,0.0378,0.054,0.0558,0.0346,0.0344,0.0342,0,-0.0389,-0.0268,-0.0168,-0.0135,-0.006,-0.0013,0.002,0.0077,0.0124,0.0189,0.0219,0.0294,0.0336,0.0394,0.0418,0.0379,0.0539,0.0491,0.0556,0.0556,0.0592,0.059,0.0764,0.0616,0.0616,0.0616,0.0615,0,-0.0249,-0.0162,-0.0126,-0.0064,0.0033,0.0051,0.0147,0.0179,0.0229,0.0297,0.0296,0.0361,0.0388,0.0457,0.0476,0.0575,0.0593,0.061,0.0614,0.0611,0.0609,0.0639,0.0632,0.062,0.0619,0.0618,0.0618,0,-0.0128,-0.0101,0.0008,0.0069,0.0087,0.0155,0.0208,0.0268,0.0294,0.038,0.0402,0.0443,0.0524,0.0553,0.0651,0.0664,0.0779,0.0776,0.0759,0.076,0.0824,0.0818,0.1025,0.1054,0.0885,0.0887,0.0888,0,-0.0039,0.0027,0.0095,0.0139,0.0174,0.0247,0.0294,0.0314,0.0363,0.0436,0.0487,0.0567,0.0632,0.0761,0.08,0.0875,0.0875,0.0942,0.0886,0.0881,0.0877,0.0873,0.088,0.0953,0.0955,0.0956,0.0958,0,0.0115,0.0125,0.0192,0.0264,0.0319,0.0377,0.0433,0.047,0.0499,0.0554,0.0635,0.0686,0.0785,0.0864,0.0941,0.0977,0.0973,0.0974,0.0994,0.0992,0.0979,0.0988,0.0788,0.097,0.0969,0.0968,0.0967,0.0967,0.0223,0.0282,0.0338,0.0413,0.0456,0.0508,0.0567,0.06,0.0668,0.0749,0.0757,0.0845,0.0903,0.1005,0.1044,0.1113,0.1095,0.1123,0.113,0.1137,0.1142,0.0966,0.1127,0.1127,0.1126,0.1126,0.1126,0,0.0379,0.0414,0.0482,0.056,0.0618,0.0607,0.0668,0.0718,0.0795,0.0849,0.0912,0.1005,0.1082,0.1126,0.1203,0.125,0.125,0.127,0.1267,0.1276,0.1154,0.113,0.1268,0.1268,0.1268,0.1268,0.1268,0.1268,0.0467,0.0565,0.0581,0.0701,0.0736,0.0821,0.0857,0.0905,0.0948,0.1052,0.1115,0.1142,0.1192,0.1272,0.1342,0.1353,0.1382,0.1404,0.1413,0.1299,0.1284,0.1271,0.1248,0.141,0.141,0.153,0.1531,0.1532]}]]